Time,TemperatureF,DewpointF,PressureIn,WindDirection,WindDirectionDegrees,WindSpeedMPH,WindSpeedGustMPH,Humidity,HourlyPrecipIn,Conditions,Clouds,dailyrainin,SoftwareType,DateUTC
2013-02-05 00:05:00,48.6,18.5,29.94,NNE,21,3.0,5.8,30,0.00,,,-99.99,FreeWX-Wi 1.01,2013-02-05 05:05:00,
2013-02-05 00:10:00,48.4,18.3,29.94,NNE,21,3.0,0.0,30,0.00,,,-99.99,FreeWX-Wi 1.01,2013-02-05 05:10:00,
2013-02-05 00:15:00,48.4,18.3,29.94,NNE,21,3.0,3.6,30,0.00,,,-99.99,FreeWX-Wi 1.01,2013-02-05 05:15:00,
2013-02-05 00:20:00,48.2,18.3,29.94,NNE,22,3.0,4.9,30,0.00,,,-99.99,FreeWX-Wi 1.01,2013-02-05 05:20:00,
2013-02-05 00:25:00,47.7,17.8,29.94,NNE,22,3.0,0.0,30,0.00,,,-99.99,FreeWX-Wi 1.01,2013-02-05 05:25:00,
2013-02-05 00:30:00,47.3,18.1,29.94,NNE,22,3.0,3.6,31,0.00,,,-99.99,FreeWX-Wi 1.01,2013-02-05 05:30:00,
2013-02-05 00:35:00,47.1,17.2,29.94,NNE,23,3.0,5.4,30,0.00,,,-99.99,FreeWX-Wi 1.01,2013-02-05 05:35:00,
2013-02-05 00:40:00,47.1,18.1,29.97,NNE,23,3.0,4.9,31,0.00,,,-99.99,FreeWX-Wi 1.01,2013-02-05 05:40:00,
2013-02-05 00:45:00,47.3,18.1,29.97,NNE,23,3.0,5.4,31,0.00,,,-99.99,FreeWX-Wi 1.01,2013-02-05 05:45:00,
2013-02-05 00:50:00,47.1,18.1,29.97,NNE,24,3.0,3.1,31,0.00,,,-99.99,FreeWX-Wi 1.01,2013-02-05 05:50:00,
2013-02-05 00:55:00,46.9,17.1,29.97,NNE,25,3.0,4.0,30,0.00,,,-99.99,FreeWX-Wi 1.01,2013-02-05 05:55:00,
2013-02-05 01:00:00,46.6,16.9,29.97,NNE,25,3.0,3.6,30,0.00,,,-99.99,FreeWX-Wi 1.01,2013-02-05 06:00:00,
2013-02-05 01:05:00,46.4,16.7,29.97,NNE,26,3.0,4.0,30,0.00,,,-99.99,FreeWX-Wi 1.01,2013-02-05 06:05:00,
2013-02-05 01:10:00,46.4,16.7,29.97,NNE,26,3.0,0.0,30,0.00,,,-99.99,FreeWX-Wi 1.01,2013-02-05 06:10:00,
2013-02-05 01:15:00,46.4,16.7,29.97,NNE,27,3.0,5.8,30,0.00,,,-99.99,FreeWX-Wi 1.01,2013-02-05 06:15:00,
2013-02-05 01:20:00,46.6,16.9,29.97,NNE,30,3.0,5.8,30,0.00,,,-99.99,FreeWX-Wi 1.01,2013-02-05 06:20:00,
2013-02-05 01:25:00,46.6,16.0,29.97,NNE,32,3.0,4.0,29,0.00,,,-99.99,FreeWX-Wi 1.01,2013-02-05 06:25:00,
2013-02-05 01:30:00,46.2,16.5,29.97,NNE,33,3.0,4.0,30,0.00,,,-99.99,FreeWX-Wi 1.01,2013-02-05 06:30:00,
2013-02-05 01:35:00,46.0,16.3,29.97,NE,35,3.0,5.4,30,0.00,,,-99.99,FreeWX-Wi 1.01,2013-02-05 06:35:00,
2013-02-05 01:40:00,46.0,16.3,29.97,NE,36,3.0,5.8,30,0.00,,,-99.99,FreeWX-Wi 1.01,2013-02-05 06:40:00,
2013-02-05 01:45:00,46.0,16.3,29.97,NE,36,3.0,3.0,30,0.00,,,-99.99,FreeWX-Wi 1.01,2013-02-05 06:45:00,
2013-02-05 01:50:00,46.0,16.3,29.97,NE,36,3.0,3.1,30,0.00,,,-99.99,FreeWX-Wi 1.01,2013-02-05 06:50:00,
2013-02-05 01:55:00,45.9,16.2,29.97,NE,36,3.0,4.0,30,0.00,,,-99.99,FreeWX-Wi 1.01,2013-02-05 06:55:00,
2013-02-05 02:00:00,45.9,15.4,29.97,NE,36,3.0,4.0,29,0.00,,,-99.99,FreeWX-Wi 1.01,2013-02-05 07:00:00,
2013-02-05 02:05:00,45.7,15.3,29.97,NE,36,3.0,3.0,29,0.00,,,-99.99,FreeWX-Wi 1.01,2013-02-05 07:05:00,
2013-02-05 02:10:00,45.5,15.1,29.97,NE,36,3.0,6.3,29,0.00,,,-99.99,FreeWX-Wi 1.01,2013-02-05 07:10:00,
2013-02-05 02:15:00,45.3,14.9,29.97,NE,35,3.0,4.9,29,0.00,,,-99.99,FreeWX-Wi 1.01,2013-02-05 07:15:00,
2013-02-05 02:20:00,45.5,15.1,29.97,NE,35,3.0,5.8,29,0.00,,,-99.99,FreeWX-Wi 1.01,2013-02-05 07:20:00,
2013-02-05 02:25:00,45.5,15.1,29.97,NE,35,3.0,7.6,29,0.00,,,-99.99,FreeWX-Wi 1.01,2013-02-05 07:25:00,
2013-02-05 02:30:00,45.7,15.3,29.97,NE,34,3.0,5.8,29,0.00,,,-99.99,FreeWX-Wi 1.01,2013-02-05 07:30:00,
2013-02-05 02:35:00,45.7,15.3,29.97,NE,34,3.0,5.8,29,0.00,,,-99.99,FreeWX-Wi 1.01,2013-02-05 07:35:00,
2013-02-05 02:40:00,45.7,15.3,29.97,NE,34,3.0,6.7,29,0.00,,,-99.99,FreeWX-Wi 1.01,2013-02-05 07:40:00,
2013-02-05 02:45:00,45.7,15.3,29.97,NE,34,3.0,5.8,29,0.00,,,-99.99,FreeWX-Wi 1.01,2013-02-05 07:45:00,
2013-02-05 02:50:00,45.7,14.5,29.97,NNE,33,3.0,5.4,28,0.00,,,-99.99,FreeWX-Wi 1.01,2013-02-05 07:50:00,
2013-02-05 02:55:00,45.7,14.5,29.97,NNE,33,3.0,4.0,28,0.00,,,-99.99,FreeWX-Wi 1.01,2013-02-05 07:55:00,
2013-02-05 03:00:00,45.7,14.5,29.97,NNE,33,3.0,4.0,28,0.00,,,-99.99,FreeWX-Wi 1.01,2013-02-05 08:00:00,
2013-02-05 03:05:00,45.5,14.4,29.97,NE,34,3.0,4.9,28,0.00,,,-99.99,FreeWX-Wi 1.01,2013-02-05 08:05:00,
2013-02-05 03:10:00,45.5,14.4,29.97,NNE,33,3.0,4.5,28,0.00,,,-99.99,FreeWX-Wi 1.01,2013-02-05 08:10:00,
2013-02-05 03:15:00,45.5,14.4,29.97,NNE,33,3.0,3.0,28,0.00,,,-99.99,FreeWX-Wi 1.01,2013-02-05 08:15:00,
2013-02-05 03:20:00,45.3,14.2,29.97,NNE,33,3.0,4.9,28,0.00,,,-99.99,FreeWX-Wi 1.01,2013-02-05 08:20:00,
2013-02-05 03:25:00,45.1,14.0,29.97,NNE,31,3.0,4.0,28,0.00,,,-99.99,FreeWX-Wi 1.01,2013-02-05 08:25:00,
2013-02-05 03:30:00,45.0,13.8,29.97,NNE,29,3.0,4.9,28,0.00,,,-99.99,FreeWX-Wi 1.01,2013-02-05 08:30:00,
2013-02-05 03:35:00,44.8,13.6,29.97,NNE,28,3.0,4.0,28,0.00,,,-99.99,FreeWX-Wi 1.01,2013-02-05 08:35:00,
2013-02-05 03:40:00,44.6,13.5,29.97,NNE,27,3.0,5.4,28,0.00,,,-99.99,FreeWX-Wi 1.01,2013-02-05 08:40:00,
2013-02-05 03:45:00,44.4,14.2,29.97,NNE,27,3.0,3.0,29,0.00,,,-99.99,FreeWX-Wi 1.01,2013-02-05 08:45:00,
2013-02-05 03:50:00,44.2,14.0,29.97,NNE,26,3.0,3.6,29,0.00,,,-99.99,FreeWX-Wi 1.01,2013-02-05 08:50:00,
2013-02-05 03:55:00,44.1,13.8,29.97,NNE,25,3.0,0.0,29,0.00,,,-99.99,FreeWX-Wi 1.01,2013-02-05 08:55:00,
2013-02-05 04:00:00,43.9,13.6,29.97,NNE,24,3.0,3.6,29,0.00,,,-99.99,FreeWX-Wi 1.01,2013-02-05 09:00:00,
2013-02-05 04:05:00,43.7,13.6,29.97,NNE,21,3.0,3.6,29,0.00,,,-99.99,FreeWX-Wi 1.01,2013-02-05 09:05:00,
2013-02-05 04:10:00,43.7,13.6,29.97,NNE,20,3.0,3.6,29,0.00,,,-99.99,FreeWX-Wi 1.01,2013-02-05 09:10:00,
2013-02-05 04:15:00,43.7,13.6,29.97,NNE,19,3.0,5.4,29,0.00,,,-99.99,FreeWX-Wi 1.01,2013-02-05 09:15:00,
2013-02-05 04:20:00,43.7,13.6,29.97,NNE,18,3.0,5.4,29,0.00,,,-99.99,FreeWX-Wi 1.01,2013-02-05 09:20:00,
2013-02-05 04:25:00,43.9,13.6,29.97,NNE,15,3.0,6.7,29,0.00,,,-99.99,FreeWX-Wi 1.01,2013-02-05 09:25:00,
2013-02-05 04:30:00,43.9,13.6,29.97,NNE,15,3.0,5.8,29,0.00,,,-99.99,FreeWX-Wi 1.01,2013-02-05 09:30:00,
2013-02-05 04:35:00,43.7,13.6,29.97,NNE,14,3.0,3.1,29,0.00,,,-99.99,FreeWX-Wi 1.01,2013-02-05 09:35:00,
2013-02-05 04:40:00,43.5,13.5,29.97,NNE,13,3.0,3.0,29,0.00,,,-99.99,FreeWX-Wi 1.01,2013-02-05 09:40:00,
2013-02-05 04:45:00,43.3,13.3,29.97,NNE,12,3.0,3.0,29,0.00,,,-99.99,FreeWX-Wi 1.01,2013-02-05 09:45:00,
2013-02-05 04:50:00,43.2,13.1,29.97,North,11,3.0,3.0,29,0.00,,,-99.99,FreeWX-Wi 1.01,2013-02-05 09:50:00,
2013-02-05 04:55:00,43.0,12.9,29.94,North,11,3.0,3.1,29,0.00,,,-99.99,FreeWX-Wi 1.01,2013-02-05 09:55:00,
2013-02-05 05:00:00,43.0,12.9,29.94,North,11,3.0,4.9,29,0.00,,,-99.99,FreeWX-Wi 1.01,2013-02-05 10:00:00,
2013-02-05 05:05:00,42.8,12.7,29.94,North,10,3.0,0.0,29,0.00,,,-99.99,FreeWX-Wi 1.01,2013-02-05 10:05:00,
2013-02-05 05:10:00,42.8,12.7,29.94,North,9,3.0,4.0,29,0.00,,,-99.99,FreeWX-Wi 1.01,2013-02-05 10:10:00,
2013-02-05 05:15:00,42.6,12.6,29.94,North,9,3.0,3.6,29,0.00,,,-99.99,FreeWX-Wi 1.01,2013-02-05 10:15:00,
2013-02-05 05:20:00,42.4,12.4,29.94,North,8,3.0,4.0,29,0.00,,,-99.99,FreeWX-Wi 1.01,2013-02-05 10:20:00,
2013-02-05 05:25:00,42.3,12.4,29.94,North,7,3.0,3.1,29,0.00,,,-99.99,FreeWX-Wi 1.01,2013-02-05 10:25:00,
2013-02-05 05:30:00,41.9,12.0,29.94,North,7,3.0,4.0,29,0.00,,,-99.99,FreeWX-Wi 1.01,2013-02-05 10:30:00,
2013-02-05 05:35:00,41.7,11.8,29.94,North,6,3.0,3.1,29,0.00,,,-99.99,FreeWX-Wi 1.01,2013-02-05 10:35:00,
2013-02-05 05:40:00,41.5,11.7,29.94,North,6,3.0,0.0,29,0.00,,,-99.99,FreeWX-Wi 1.01,2013-02-05 10:40:00,
2013-02-05 05:45:00,41.4,11.5,29.94,North,6,3.0,0.0,29,0.00,,,-99.99,FreeWX-Wi 1.01,2013-02-05 10:45:00,
2013-02-05 05:50:00,41.0,11.1,29.94,North,6,3.0,0.0,29,0.00,,,-99.99,FreeWX-Wi 1.01,2013-02-05 10:50:00,
2013-02-05 05:55:00,40.6,11.7,29.94,North,5,3.0,0.0,30,0.00,,,-99.99,FreeWX-Wi 1.01,2013-02-05 10:55:00,
2013-02-05 06:00:00,40.5,11.5,29.94,North,5,3.0,0.0,30,0.00,,,-99.99,FreeWX-Wi 1.01,2013-02-05 11:00:00,
2013-02-05 06:05:00,40.1,11.1,29.94,North,5,2.0,0.0,30,0.00,,,-99.99,FreeWX-Wi 1.01,2013-02-05 11:05:00,
2013-02-05 06:10:00,39.6,10.8,29.94,North,5,2.0,0.0,30,0.00,,,-99.99,FreeWX-Wi 1.01,2013-02-05 11:10:00,
2013-02-05 06:15:00,38.7,9.9,29.94,North,5,2.0,4.0,30,0.00,,,-99.99,FreeWX-Wi 1.01,2013-02-05 11:15:00,
2013-02-05 06:20:00,38.1,10.2,29.94,North,5,2.0,3.1,31,0.00,,,-99.99,FreeWX-Wi 1.01,2013-02-05 11:20:00,
2013-02-05 06:25:00,38.3,10.4,29.94,North,5,2.0,2.2,31,0.00,,,-99.99,FreeWX-Wi 1.01,2013-02-05 11:25:00,
2013-02-05 06:30:00,38.5,10.6,29.94,North,5,2.0,0.0,31,0.00,,,-99.99,FreeWX-Wi 1.01,2013-02-05 11:30:00,
2013-02-05 06:35:00,38.7,10.6,29.94,North,4,2.0,0.0,31,0.00,,,-99.99,FreeWX-Wi 1.01,2013-02-05 11:35:00,
2013-02-05 06:40:00,38.7,10.6,29.94,North,3,2.0,0.0,31,0.00,,,-99.99,FreeWX-Wi 1.01,2013-02-05 11:40:00,
2013-02-05 06:45:00,38.7,10.6,29.94,North,3,2.0,0.0,31,0.00,,,-99.99,FreeWX-Wi 1.01,2013-02-05 11:45:00,
2013-02-05 06:50:00,38.7,10.6,29.94,North,2,2.0,0.0,31,0.00,,,-99.99,FreeWX-Wi 1.01,2013-02-05 11:50:00,
2013-02-05 06:55:00,38.1,10.2,29.97,North,2,2.0,0.0,31,0.00,,,-99.99,FreeWX-Wi 1.01,2013-02-05 11:55:00,
2013-02-05 07:00:00,37.6,9.7,29.97,North,2,2.0,0.0,31,0.00,,,-99.99,FreeWX-Wi 1.01,2013-02-05 12:00:00,
2013-02-05 07:05:00,37.4,9.5,29.97,North,2,2.0,4.5,31,0.00,,,-99.99,FreeWX-Wi 1.01,2013-02-05 12:05:00,
2013-02-05 07:10:00,37.8,9.9,29.97,North,2,2.0,3.1,31,0.00,,,-99.99,FreeWX-Wi 1.01,2013-02-05 12:10:00,
2013-02-05 07:15:00,37.8,9.9,29.97,North,1,2.0,3.6,31,0.00,,,-99.99,FreeWX-Wi 1.01,2013-02-05 12:15:00,
2013-02-05 07:20:00,37.8,9.9,29.97,North,1,2.0,0.0,31,0.00,,,-99.99,FreeWX-Wi 1.01,2013-02-05 12:20:00,
2013-02-05 07:25:00,37.8,9.9,29.97,North,1,2.0,0.0,31,0.00,,,-99.99,FreeWX-Wi 1.01,2013-02-05 12:25:00,
2013-02-05 07:30:00,37.6,9.7,29.97,North,1,2.0,0.0,31,0.00,,,-99.99,FreeWX-Wi 1.01,2013-02-05 12:30:00,
2013-02-05 07:35:00,37.6,9.7,29.97,North,1,2.0,0.0,31,0.00,,,-99.99,FreeWX-Wi 1.01,2013-02-05 12:35:00,
2013-02-05 07:40:00,36.9,9.9,29.97,North,1,2.0,0.0,32,0.00,,,-99.99,FreeWX-Wi 1.01,2013-02-05 12:40:00,
2013-02-05 07:45:00,36.7,9.7,29.97,North,1,2.0,0.0,32,0.00,,,-99.99,FreeWX-Wi 1.01,2013-02-05 12:45:00,
2013-02-05 07:50:00,36.3,9.3,29.97,North,1,2.0,0.0,32,0.00,,,-99.99,FreeWX-Wi 1.01,2013-02-05 12:50:00,
2013-02-05 07:55:00,36.5,9.5,29.97,North,1,2.0,0.0,32,0.00,,,-99.99,FreeWX-Wi 1.01,2013-02-05 12:55:00,
2013-02-05 08:00:00,36.5,9.5,29.97,North,1,2.0,0.0,32,0.00,,,-99.99,FreeWX-Wi 1.01,2013-02-05 13:00:00,
2013-02-05 08:05:00,36.5,10.2,29.97,North,1,2.0,0.0,33,0.00,,,-99.99,FreeWX-Wi 1.01,2013-02-05 13:05:00,
2013-02-05 08:10:00,36.5,10.2,30.00,North,1,2.0,0.0,33,0.00,,,-99.99,FreeWX-Wi 1.01,2013-02-05 13:10:00,
2013-02-05 08:15:00,36.5,10.2,30.00,North,1,2.0,0.0,33,0.00,,,-99.99,FreeWX-Wi 1.01,2013-02-05 13:15:00,
2013-02-05 08:20:00,36.1,9.9,30.00,North,2,2.0,0.0,33,0.00,,,-99.99,FreeWX-Wi 1.01,2013-02-05 13:20:00,
2013-02-05 08:25:00,35.4,9.9,30.00,North,3,1.0,0.0,34,0.00,,,-99.99,FreeWX-Wi 1.01,2013-02-05 13:25:00,
2013-02-05 08:30:00,34.9,9.3,30.00,North,5,1.0,5.8,34,0.00,,,-99.99,FreeWX-Wi 1.01,2013-02-05 13:30:00,
2013-02-05 08:35:00,34.3,10.2,30.00,North,7,1.0,4.9,36,0.00,,,-99.99,FreeWX-Wi 1.01,2013-02-05 13:35:00,
2013-02-05 08:40:00,34.2,10.6,30.00,North,9,1.0,4.0,37,0.00,,,-99.99,FreeWX-Wi 1.01,2013-02-05 13:40:00,
2013-02-05 08:45:00,34.2,11.3,30.00,North,11,1.0,5.4,38,0.00,,,-99.99,FreeWX-Wi 1.01,2013-02-05 13:45:00,
2013-02-05 08:50:00,34.5,12.2,30.00,NNE,16,1.0,5.8,39,0.00,,,-99.99,FreeWX-Wi 1.01,2013-02-05 13:50:00,
2013-02-05 08:55:00,35.1,13.3,30.00,NNE,17,2.0,5.4,40,0.00,,,-99.99,FreeWX-Wi 1.01,2013-02-05 13:55:00,
2013-02-05 09:00:00,35.6,13.1,30.00,NNE,19,2.0,5.8,39,0.00,,,-99.99,FreeWX-Wi 1.01,2013-02-05 14:00:00,
2013-02-05 09:05:00,36.3,13.8,30.00,NNE,20,2.0,4.0,39,0.00,,,-99.99,FreeWX-Wi 1.01,2013-02-05 14:05:00,
2013-02-05 09:10:00,37.4,14.2,30.00,NNE,20,2.0,3.6,38,0.00,,,-99.99,FreeWX-Wi 1.01,2013-02-05 14:10:00,
2013-02-05 09:15:00,38.1,13.6,30.00,NNE,21,2.0,3.6,36,0.00,,,-99.99,FreeWX-Wi 1.01,2013-02-05 14:15:00,
2013-02-05 09:20:00,39.0,13.6,30.00,NNE,22,2.0,6.7,35,0.00,,,-99.99,FreeWX-Wi 1.01,2013-02-05 14:20:00,
2013-02-05 09:25:00,39.9,13.8,30.00,NNE,23,2.0,5.8,34,0.00,,,-99.99,FreeWX-Wi 1.01,2013-02-05 14:25:00,
2013-02-05 09:30:00,41.2,14.9,30.00,NNE,24,2.0,4.0,34,0.00,,,-99.99,FreeWX-Wi 1.01,2013-02-05 14:30:00,
2013-02-05 09:35:00,42.6,15.6,30.00,NNE,25,2.0,5.8,33,0.00,,,-99.99,FreeWX-Wi 1.01,2013-02-05 14:35:00,
2013-02-05 09:40:00,43.7,15.8,30.00,NNE,28,2.0,5.8,32,0.00,,,-99.99,FreeWX-Wi 1.01,2013-02-05 14:40:00,
2013-02-05 09:45:00,44.8,16.0,30.00,NNE,28,2.0,4.9,31,0.00,,,-99.99,FreeWX-Wi 1.01,2013-02-05 14:45:00,
2013-02-05 09:50:00,46.4,16.0,30.00,NNE,32,3.0,5.4,29,0.00,,,-99.99,FreeWX-Wi 1.01,2013-02-05 14:50:00,
2013-02-05 09:55:00,47.3,16.7,30.00,NNE,32,3.0,5.4,29,0.00,,,-99.99,FreeWX-Wi 1.01,2013-02-05 14:55:00,
2013-02-05 10:00:00,48.9,18.1,30.00,NNE,33,3.0,5.4,29,0.00,,,-99.99,FreeWX-Wi 1.01,2013-02-05 15:00:00,
2013-02-05 10:05:00,50.2,18.3,30.00,NNE,33,3.0,3.0,28,0.00,,,-99.99,FreeWX-Wi 1.01,2013-02-05 15:05:00,
2013-02-05 10:10:00,51.8,18.9,30.03,NNE,33,3.0,0.0,27,0.00,,,-99.99,FreeWX-Wi 1.01,2013-02-05 15:10:00,
2013-02-05 10:15:00,53.1,19.9,30.03,NNE,33,3.0,0.0,27,0.00,,,-99.99,FreeWX-Wi 1.01,2013-02-05 15:15:00,
2013-02-05 10:20:00,54.1,19.9,30.03,NNE,32,3.0,0.0,26,0.00,,,-99.99,FreeWX-Wi 1.01,2013-02-05 15:20:00,
2013-02-05 10:25:00,55.4,20.1,30.03,NNE,31,3.0,0.0,25,0.00,,,-99.99,FreeWX-Wi 1.01,2013-02-05 15:25:00,
2013-02-05 10:30:00,56.5,21.0,30.03,NNE,30,3.0,0.0,25,0.00,,,-99.99,FreeWX-Wi 1.01,2013-02-05 15:30:00,
2013-02-05 10:35:00,57.4,21.9,30.03,NNE,25,3.0,0.0,25,0.00,,,-99.99,FreeWX-Wi 1.01,2013-02-05 15:35:00,
2013-02-05 10:40:00,58.8,23.0,30.03,NNE,23,2.0,0.0,25,0.00,,,-99.99,FreeWX-Wi 1.01,2013-02-05 15:40:00,
2013-02-05 10:45:00,60.4,23.5,30.03,NNE,19,2.0,0.0,24,0.00,,,-99.99,FreeWX-Wi 1.01,2013-02-05 15:45:00,
2013-02-05 10:50:00,61.7,24.6,30.03,NNE,18,2.0,3.6,24,0.00,,,-99.99,FreeWX-Wi 1.01,2013-02-05 15:50:00,
2013-02-05 10:55:00,62.8,24.4,30.03,NNE,18,2.0,4.0,23,0.00,,,-99.99,FreeWX-Wi 1.01,2013-02-05 15:55:00,
2013-02-05 11:00:00,63.9,25.3,30.03,NNE,16,2.0,4.0,23,0.00,,,-99.99,FreeWX-Wi 1.01,2013-02-05 16:00:00,
2013-02-05 11:05:00,64.9,22.8,30.03,North,10,2.0,5.4,20,0.00,,,-99.99,FreeWX-Wi 1.01,2013-02-05 16:05:00,
2013-02-05 11:10:00,65.8,23.7,30.03,North,6,2.0,4.9,20,0.00,,,-99.99,FreeWX-Wi 1.01,2013-02-05 16:10:00,
2013-02-05 11:15:00,66.7,24.4,30.03,North,1,2.0,4.0,20,0.00,,,-99.99,FreeWX-Wi 1.01,2013-02-05 16:15:00,
2013-02-05 11:20:00,67.5,25.0,30.03,North,354,2.0,6.3,20,0.00,,,-99.99,FreeWX-Wi 1.01,2013-02-05 16:20:00,
2013-02-05 11:25:00,68.2,25.5,30.03,NNW,348,2.0,4.0,20,0.00,,,-99.99,FreeWX-Wi 1.01,2013-02-05 16:25:00,
2013-02-05 11:30:00,68.9,26.2,30.03,NNW,335,2.0,5.8,20,0.00,,,-99.99,FreeWX-Wi 1.01,2013-02-05 16:30:00,
2013-02-05 11:35:00,69.4,26.6,30.03,NNW,327,2.0,5.4,20,0.00,,,-99.99,FreeWX-Wi 1.01,2013-02-05 16:35:00,
2013-02-05 11:40:00,70.0,25.9,30.03,NW,318,2.0,2.7,19,0.00,,,-99.99,FreeWX-Wi 1.01,2013-02-05 16:40:00,
2013-02-05 11:45:00,70.5,23.5,30.03,NW,307,2.0,5.8,17,0.00,,,-99.99,FreeWX-Wi 1.01,2013-02-05 16:45:00,
2013-02-05 11:50:00,70.9,23.9,30.03,WNW,297,2.0,4.5,17,0.00,,,-99.99,FreeWX-Wi 1.01,2013-02-05 16:50:00,
2013-02-05 11:55:00,71.2,24.3,30.06,WNW,293,2.0,4.0,17,0.00,,,-99.99,FreeWX-Wi 1.01,2013-02-05 16:55:00,
2013-02-05 12:00:00,71.8,23.2,30.06,WNW,289,2.0,5.4,16,0.00,,,-99.99,FreeWX-Wi 1.01,2013-02-05 17:00:00,
2013-02-05 12:05:00,72.1,23.5,30.06,WNW,285,2.0,4.0,16,0.00,,,-99.99,FreeWX-Wi 1.01,2013-02-05 17:05:00,
2013-02-05 12:10:00,72.7,23.9,30.03,West,279,2.0,5.4,16,0.00,,,-99.99,FreeWX-Wi 1.01,2013-02-05 17:10:00,
2013-02-05 12:15:00,72.7,23.9,30.03,West,272,2.0,4.9,16,0.00,,,-99.99,FreeWX-Wi 1.01,2013-02-05 17:15:00,
2013-02-05 12:21:00,73.2,24.3,30.03,West,272,2.0,5.8,16,0.00,,,-99.99,FreeWX-Wi 1.01,2013-02-05 17:21:00,
2013-02-05 12:26:00,73.6,24.6,30.03,West,271,2.0,0.0,16,0.00,,,-99.99,FreeWX-Wi 1.01,2013-02-05 17:26:00,
2013-02-05 12:31:00,73.6,24.6,30.03,West,269,2.0,5.8,16,0.00,,,-99.99,FreeWX-Wi 1.01,2013-02-05 17:31:00,
2013-02-05 12:36:00,73.6,24.6,30.03,West,268,3.0,3.0,16,0.00,,,-99.99,FreeWX-Wi 1.01,2013-02-05 17:36:00,
2013-02-05 12:41:00,73.6,24.6,30.03,West,268,3.0,0.0,16,0.00,,,-99.99,FreeWX-Wi 1.01,2013-02-05 17:41:00,
2013-02-05 12:46:00,72.9,24.1,30.03,West,267,3.0,0.0,16,0.00,,,-99.99,FreeWX-Wi 1.01,2013-02-05 17:46:00,
2013-02-05 13:26:00,74.1,25.0,30.03,WSW,257,2.0,6.3,16,0.00,,,-99.99,FreeWX-Wi 1.01,2013-02-05 18:26:00,
2013-02-05 13:57:00,73.6,24.6,30.00,WSW,253,2.0,6.3,16,0.00,,,-99.99,FreeWX-Wi 1.01,2013-02-05 18:57:00,
2013-02-05 16:10:00,73.8,24.8,29.94,ESE,117,2.0,6.7,16,0.00,,,-99.99,FreeWX-Wi 1.01,2013-02-05 21:10:00,
2013-02-05 16:40:00,73.2,21.2,29.94,SE,142,3.0,7.6,14,0.00,,,-99.99,FreeWX-Wi 1.01,2013-02-05 21:40:00,
2013-02-05 20:06:00,59.4,14.5,29.94,South,169,2.0,3.6,17,0.00,,,-99.99,FreeWX-Wi 1.01,2013-02-06 01:06:00,
2013-02-05 20:36:00,57.4,12.9,29.97,SSE,160,2.0,8.7,17,0.00,,,-99.99,FreeWX-Wi 1.01,2013-02-06 01:36:00,
2013-02-05 21:06:00,53.6,11.1,29.97,SE,136,3.0,8.7,18,0.00,,,-99.99,FreeWX-Wi 1.01,2013-02-06 02:06:00,
2013-02-05 21:36:00,54.1,11.7,29.97,ESE,122,4.0,5.4,18,0.00,,,-99.99,FreeWX-Wi 1.01,2013-02-06 02:36:00,
2013-02-05 22:06:00,52.7,10.4,29.97,ESE,115,4.0,5.4,18,0.00,,,-99.99,FreeWX-Wi 1.01,2013-02-06 03:06:00,
2013-02-05 22:36:00,51.3,10.4,30.00,ESE,116,4.0,4.9,19,0.00,,,-99.99,FreeWX-Wi 1.01,2013-02-06 03:36:00,
2013-02-05 23:06:00,51.8,15.3,30.00,ESE,120,3.0,4.5,23,0.00,,,-99.99,FreeWX-Wi 1.01,2013-02-06 04:06:00,
2013-02-05 23:36:00,49.5,16.9,30.00,ESE,120,3.0,4.0,27,0.00,,,-99.99,FreeWX-Wi 1.01,2013-02-06 04:36:00,